| time (UTC) | temp C | wind direction | speed KPH | gust KPH | rain 1hr cm | rain 24hr cm | rain mn cm | humidity % | barometer mb |
| 20260906172208 | 17 | 186 | 6.4 | 11.3 | 0.00 | 0.00 | 0.00 | 47 | 1021.9 |
| 20260906171210 | 16 | 155 | 3.2 | 6.4 | 0.00 | 0.00 | 0.00 | 49 | 1021.8 |
| 20260906170210 | 16 | 205 | 3.2 | 6.4 | 0.00 | 0.00 | 0.00 | 49 | 1021.7 |
| 20260906165211 | 16 | 139 | 6.4 | 14.5 | 0.00 | 0.00 | 0.00 | 48 | 1021.8 |
| 20260906164310 | 16 | 177 | 4.8 | 9.7 | 0.00 | 0.00 | 0.00 | 48 | 1021.8 |
| 20260906163407 | 17 | 211 | 1.6 | 3.2 | 0.00 | 0.00 | 0.00 | 47 | 1021.7 |
| 20260906162410 | 17 | 180 | 6.4 | 11.3 | 0.00 | 0.00 | 0.00 | 47 | 1021.8 |
| 20260906161411 | 16 | 215 | 3.2 | 4.8 | 0.00 | 0.00 | 0.00 | 50 | 1021.9 |
| 20260906155410 | 15 | 209 | 0.0 | 1.6 | 0.00 | 0.00 | 0.00 | 53 | 1022.0 |
| 20260906154509 | 14 | 225 | 0.0 | 0.0 | 0.00 | 0.00 | 0.00 | 56 | 1022.0 |
| 20260906153512 | 13 | 157 | 1.6 | 3.2 | 0.00 | 0.00 | 0.00 | 57 | 1021.9 |
| 20260906152511 | 13 | 247 | 0.0 | 0.0 | 0.00 | 0.00 | 0.00 | 57 | 1022.0 |
| 20260906151508 | 13 | 180 | 0.0 | 0.0 | 0.00 | 0.00 | 0.00 | 56 | 1021.8 |
| 20260906144626 | 11 | 180 | 0.0 | 0.0 | 0.00 | 0.00 | 0.00 | 58 | 1021.6 |
| 20260906143709 | 11 | 180 | 0.0 | 1.6 | 0.00 | 0.00 | 0.00 | 58 | 1021.6 |
| 20260906142808 | 11 | 157 | 0.0 | 0.0 | 0.00 | 0.00 | 0.00 | 59 | 1021.4 |
| 20260906141811 | 10 | 180 | 0.0 | 1.6 | 0.00 | 0.00 | 0.00 | 61 | 1021.2 |
| 20260906140908 | 10 | 204 | 0.0 | 0.0 | 0.00 | 0.00 | 0.00 | 61 | 1021.3 |
| 20260906135910 | 10 | 202 | 0.0 | 0.0 | 0.00 | 0.00 | 0.00 | 61 | 1021.2 |
| 20260906134911 | 10 | 180 | 0.0 | 0.0 | 0.00 | 0.00 | 0.00 | 60 | 1021.1 |
| 20260906134009 | 10 | 180 | 1.6 | 4.8 | 0.00 | 0.00 | 0.00 | 61 | 1020.9 |
| 20260906133010 | 10 | 157 | 0.0 | 0.0 | 0.00 | 0.00 | 0.00 | 61 | 1020.9 |
| 20260906132010 | 9 | 157 | 0.0 | 0.0 | 0.00 | 0.00 | 0.00 | 62 | 1020.9 |
| 20260906131008 | 9 | 180 | 0.0 | 0.0 | 0.00 | 0.00 | 0.00 | 61 | 1020.9 |
| 20260906125010 | 9 | 180 | 0.0 | 0.0 | 0.00 | 0.00 | 0.00 | 61 | 1021.0 |
| 20260906123110 | 9 | 180 | 0.0 | 0.0 | 0.00 | 0.00 | 0.00 | 62 | 1021.2 |
| 20260906122111 | 9 | 180 | 0.0 | 0.0 | 0.00 | 0.00 | 0.00 | 62 | 1021.3 |
| 20260906121108 | 10 | 180 | 0.0 | 0.0 | 0.00 | 0.00 | 0.00 | 62 | 1021.2 |
| 20260906120110 | 10 | 180 | 0.0 | 0.0 | 0.00 | 0.00 | 0.00 | 60 | 1021.2 |
| 20260906115208 | 10 | 180 | 0.0 | 0.0 | 0.00 | 0.00 | 0.00 | 61 | 1021.2 |
| 20260906114209 | 10 | 180 | 0.0 | 0.0 | 0.00 | 0.00 | 0.00 | 62 | 1021.1 |
| 20260906113308 | 10 | 180 | 0.0 | 0.0 | 0.00 | 0.00 | 0.00 | 62 | 1021.2 |
| 20260906112310 | 10 | 180 | 0.0 | 0.0 | 0.00 | 0.00 | 0.00 | 62 | 1021.2 |
| 20260906110408 | 10 | 180 | 0.0 | 0.0 | 0.00 | 0.00 | 0.00 | 63 | 1021.1 |
| 20260906105409 | 10 | 180 | 0.0 | 0.0 | 0.00 | 0.00 | 0.00 | 64 | 1021.1 |
| 20260906103511 | 10 | 180 | 0.0 | 0.0 | 0.00 | 0.00 | 0.00 | 62 | 1021.0 |
| 20260906102509 | 11 | 180 | 0.0 | 0.0 | 0.00 | 0.00 | 0.00 | 61 | 1021.0 |
| 20260906101512 | 11 | 180 | 0.0 | 0.0 | 0.00 | 0.00 | 0.00 | 60 | 1021.0 |
| 20260906100510 | 12 | 180 | 0.0 | 0.0 | 0.00 | 0.00 | 0.00 | 57 | 1021.2 |
| 20260906095509 | 12 | 180 | 0.0 | 0.0 | 0.00 | 0.00 | 0.00 | 56 | 1021.2 |
| 20260906094510 | 12 | 189 | 0.0 | 1.6 | 0.00 | 0.00 | 0.00 | 56 | 1021.2 |
| 20260906093608 | 12 | 227 | 1.6 | 3.2 | 0.00 | 0.00 | 0.00 | 56 | 1021.3 |
| 20260906092612 | 12 | 180 | 3.2 | 4.8 | 0.00 | 0.00 | 0.00 | 56 | 1021.2 |
| 20260906091609 | 13 | 180 | 3.2 | 4.8 | 0.00 | 0.00 | 0.00 | 55 | 1021.3 |
| 20260906090609 | 13 | 180 | 0.0 | 3.2 | 0.00 | 0.00 | 0.00 | 55 | 1021.3 |
| 20260906085708 | 13 | 173 | 1.6 | 3.2 | 0.00 | 0.00 | 0.00 | 54 | 1021.3 |
| 20260906083711 | 13 | 176 | 4.8 | 8.0 | 0.00 | 0.00 | 0.00 | 53 | 1021.4 |
| 20260906083609 | 13 | 185 | 4.8 | 9.7 | 0.00 | 0.00 | 0.00 | 52 | 1021.4 |
| 20260906082611 | 13 | 188 | 4.8 | 8.0 | 0.00 | 0.00 | 0.00 | 53 | 1021.3 |
| 20260906081608 | 13 | 224 | 3.2 | 4.8 | 0.00 | 0.00 | 0.00 | 53 | 1021.3 |
| 20260906080610 | 13 | 174 | 4.8 | 6.4 | 0.00 | 0.00 | 0.00 | 53 | 1021.4 |
| 20260906074708 | 13 | 208 | 3.2 | 4.8 | 0.00 | 0.00 | 0.00 | 53 | 1021.3 |
| 20260906073711 | 13 | 189 | 4.8 | 8.0 | 0.00 | 0.00 | 0.00 | 54 | 1021.3 |
| 20260906071711 | 13 | 168 | 4.8 | 6.4 | 0.00 | 0.00 | 0.00 | 54 | 1021.3 |
| 20260906065715 | 13 | 170 | 6.4 | 8.0 | 0.00 | 0.00 | 0.00 | 53 | 1021.3 |
| 20260906064613 | 13 | 220 | 0.0 | 1.6 | 0.00 | 0.00 | 0.00 | 54 | 1021.3 |
| 20260906063615 | 13 | 178 | 3.2 | 8.0 | 0.00 | 0.00 | 0.00 | 55 | 1021.3 |
| 20260906062714 | 13 | 170 | 3.2 | 6.4 | 0.00 | 0.00 | 0.00 | 54 | 1021.3 |
| 20260906060713 | 12 | 169 | 4.8 | 8.0 | 0.00 | 0.00 | 0.00 | 58 | 1021.1 |
| 20260906055713 | 12 | 206 | 0.0 | 4.8 | 0.00 | 0.00 | 0.00 | 59 | 1021.2 |
| 20260906054714 | 12 | 222 | 1.6 | 3.2 | 0.00 | 0.00 | 0.00 | 62 | 1021.2 |
| 20260906053812 | 11 | 157 | 1.6 | 3.2 | 0.00 | 0.00 | 0.00 | 65 | 1021.2 |
| 20260906051916 | 10 | 180 | 0.0 | 1.6 | 0.00 | 0.00 | 0.00 | 72 | 1021.4 |
| 20260906051013 | 10 | 225 | 0.0 | 0.0 | 0.00 | 0.00 | 0.00 | 72 | 1021.3 |
| 20260906050015 | 10 | 225 | 0.0 | 0.0 | 0.00 | 0.00 | 0.00 | 73 | 1021.3 |
| 20260906045112 | 10 | 189 | 0.0 | 0.0 | 0.00 | 0.00 | 0.00 | 74 | 1021.3 |
| 20260906044114 | 10 | 225 | 0.0 | 0.0 | 0.00 | 0.00 | 0.00 | 73 | 1021.4 |
| 20260906043114 | 10 | 202 | 0.0 | 0.0 | 0.00 | 0.00 | 0.00 | 73 | 1021.4 |
| 20260906042114 | 10 | 202 | 0.0 | 0.0 | 0.00 | 0.00 | 0.00 | 73 | 1021.4 |
| 20260906041212 | 11 | 202 | 0.0 | 0.0 | 0.00 | 0.00 | 0.00 | 72 | 1021.4 |
| 20260906040230 | 11 | 202 | 0.0 | 0.0 | 0.00 | 0.00 | 0.00 | 73 | 1021.4 |
| 20260906034213 | 11 | 202 | 0.0 | 0.0 | 0.00 | 0.00 | 0.00 | 69 | 1021.4 |
| 20260906032212 | 12 | 202 | 0.0 | 0.0 | 0.00 | 0.00 | 0.00 | 69 | 1021.2 |
| 20260906031213 | 12 | 202 | 0.0 | 0.0 | 0.00 | 0.00 | 0.00 | 67 | 1021.3 |
| 20260906030215 | 12 | 202 | 0.0 | 0.0 | 0.00 | 0.00 | 0.00 | 65 | 1021.2 |
| 20260906025214 | 12 | 202 | 0.0 | 0.0 | 0.00 | 0.00 | 0.00 | 64 | 1021.2 |
| 20260906024313 | 13 | 202 | 0.0 | 0.0 | 0.00 | 0.00 | 0.00 | 61 | 1021.2 |
| 20260906023314 | 13 | 202 | 0.0 | 0.0 | 0.00 | 0.00 | 0.00 | 60 | 1021.3 |
| 20260906022315 | 14 | 202 | 0.0 | 0.0 | 0.00 | 0.00 | 0.00 | 59 | 1021.3 |
| 20260906021313 | 14 | 202 | 0.0 | 0.0 | 0.00 | 0.00 | 0.00 | 59 | 1021.4 |
| 20260906020314 | 15 | 202 | 0.0 | 0.0 | 0.00 | 0.00 | 0.00 | 58 | 1021.4 |
| 20260906015316 | 15 | 225 | 0.0 | 0.0 | 0.00 | 0.00 | 0.00 | 58 | 1021.3 |
| 20260906014313 | 15 | 202 | 0.0 | 0.0 | 0.00 | 0.00 | 0.00 | 57 | 1021.3 |
| 20260906012315 | 15 | 203 | 0.0 | 1.6 | 0.00 | 0.00 | 0.00 | 55 | 1021.3 |
| 20260906011315 | 16 | 225 | 0.0 | 4.8 | 0.00 | 0.00 | 0.00 | 55 | 1021.3 |
| 20260906010313 | 16 | 225 | 1.6 | 4.8 | 0.00 | 0.00 | 0.00 | 53 | 1021.3 |
| 20260906005412 | 16 | 187 | 0.0 | 1.6 | 0.00 | 0.00 | 0.00 | 54 | 1021.2 |
| 20260906003415 | 16 | 235 | 3.2 | 6.4 | 0.00 | 0.00 | 0.00 | 53 | 1021.5 |
| 20260906002414 | 17 | 245 | 1.6 | 3.2 | 0.00 | 0.00 | 0.00 | 52 | 1021.3 |
| 20260906000412 | 17 | 215 | 3.2 | 9.7 | 0.00 | 0.00 | 0.00 | 52 | 1021.2 |
| 20260905235512 | 17 | 206 | 4.8 | 11.3 | 0.00 | 0.00 | 0.00 | 51 | 1021.1 |
| 20260905234513 | 17 | 194 | 0.0 | 3.2 | 0.00 | 0.00 | 0.00 | 50 | 1021.1 |
| 20260905233513 | 17 | 203 | 3.2 | 6.4 | 0.00 | 0.00 | 0.00 | 52 | 1021.2 |
| 20260905232513 | 17 | 225 | 1.6 | 4.8 | 0.00 | 0.00 | 0.00 | 50 | 1021.2 |
| 20260905231612 | 17 | 178 | 3.2 | 9.7 | 0.00 | 0.00 | 0.00 | 51 | 1021.3 |
| 20260905225615 | 17 | 180 | 4.8 | 8.0 | 0.00 | 0.00 | 0.00 | 50 | 1021.4 |
| 20260905224613 | 17 | 225 | 1.6 | 4.8 | 0.00 | 0.00 | 0.00 | 52 | 1021.6 |
| 20260905223612 | 17 | 221 | 3.2 | 6.4 | 0.00 | 0.00 | 0.00 | 52 | 1021.5 |
| 20260905222614 | 17 | 174 | 8.0 | 9.7 | 0.00 | 0.00 | 0.00 | 51 | 1021.5 |
| 20260905221614 | 17 | 210 | 6.4 | 11.3 | 0.00 | 0.00 | 0.00 | 52 | 1021.5 |
| 20260905220614 | 17 | 210 | 1.6 | 3.2 | 0.00 | 0.00 | 0.00 | 51 | 1021.6 |
| 20260905215612 | 17 | 177 | 6.4 | 11.3 | 0.00 | 0.00 | 0.00 | 52 | 1021.5 |
| 20260905214613 | 17 | 156 | 4.8 | 11.3 | 0.00 | 0.00 | 0.00 | 53 | 1021.5 |
| 20260905213616 | 17 | 183 | 3.2 | 9.7 | 0.00 | 0.00 | 0.00 | 52 | 1021.6 |
| 20260905212713 | 17 | 240 | 0.0 | 1.6 | 0.00 | 0.00 | 0.00 | 52 | 1021.6 |
| 20260905211813 | 17 | 198 | 0.0 | 4.8 | 0.00 | 0.00 | 0.00 | 51 | 1021.6 |
| 20260905210814 | 17 | 224 | 4.8 | 6.4 | 0.00 | 0.00 | 0.00 | 53 | 1021.7 |
| 20260905205813 | 17 | 183 | 3.2 | 6.4 | 0.00 | 0.00 | 0.00 | 55 | 1021.6 |
| 20260905204913 | 16 | 233 | 0.0 | 4.8 | 0.00 | 0.00 | 0.00 | 54 | 1021.6 |
| 20260905203915 | 16 | 203 | 0.0 | 4.8 | 0.00 | 0.00 | 0.00 | 55 | 1021.6 |
| 20260905202915 | 16 | 225 | 0.0 | 3.2 | 0.00 | 0.00 | 0.00 | 56 | 1021.6 |
| 20260905201912 | 16 | 234 | 0.0 | 3.2 | 0.00 | 0.00 | 0.00 | 56 | 1021.7 |
| 20260905201012 | 16 | 189 | 1.6 | 4.8 | 0.00 | 0.00 | 0.00 | 56 | 1021.7 |
| 20260905195113 | 16 | 202 | 1.6 | 6.4 | 0.00 | 0.00 | 0.00 | 58 | 1021.8 |
| 20260905193114 | 16 | 225 | 3.2 | 4.8 | 0.00 | 0.00 | 0.00 | 58 | 1021.9 |
| 20260905192130 | 16 | 205 | 1.6 | 3.2 | 0.00 | 0.00 | 0.00 | 57 | 1021.8 |
| 20260905190214 | 17 | 220 | 1.6 | 6.4 | 0.00 | 0.00 | 0.00 | 53 | 1021.9 |
| 20260905185212 | 17 | 214 | 3.2 | 8.0 | 0.00 | 0.00 | 0.00 | 53 | 1021.8 |
| 20260905184312 | 16 | 193 | 4.8 | 8.0 | 0.00 | 0.00 | 0.00 | 56 | 1021.8 |
| 20260905182313 | 16 | 226 | 3.2 | 6.4 | 0.00 | 0.00 | 0.00 | 56 | 1021.9 |
| 20260905181314 | 16 | 205 | 3.2 | 6.4 | 0.00 | 0.00 | 0.00 | 57 | 1021.9 |
| 20260905180312 | 16 | 237 | 4.8 | 8.0 | 0.00 | 0.00 | 0.00 | 56 | 1021.8 |
| 20260905175316 | 15 | 159 | 3.2 | 9.7 | 0.00 | 0.00 | 0.00 | 58 | 1021.5 |
| 20260905173413 | 15 | 217 | 1.6 | 3.2 | 0.00 | 0.00 | 0.00 | 61 | 1021.6 |
| 20260905172413 | 14 | 221 | 0.0 | 1.6 | 0.00 | 0.00 | 0.00 | 63 | 1021.6 |